Regional Weather Roundup
Issued by NWS

Home | Current Version | Previous Version | Text Only | Print | Product List | Glossary On
Versions: 1 2 3 4 5 6 7 8 9 10 11 12 13 14 15 16 17 18 19 20 21 22 23 24 25 26 27 28 29 30 31 32 33 34 35 36 37 38 39 40 41 42 43 44 45 46 47 48 49 50
000
ASUS43 KMKX 250200
RWRWI

WISCONSIN REGIONAL WEATHER ROUNDUP
NATIONAL WEATHER SERVICE MILWAUKEE/SULLIVAN WI
900 PM CDT MON APR 24 2017

NOTE: "FAIR" INDICATES FEW OR NO CLOUDS BELOW 12,000 FEET WITH NO
SIGNIFICANT WEATHER AND/OR OBSTRUCTIONS TO VISIBILITY.

WIZ001-002-006>008-014>016-023>028-250300-
NORTHWEST WISCONSIN

CITY           SKY/WX    TMP DP  RH WIND       PRES   REMARKS
SUPERIOR ARPT  CLOUDY    37  34  90 NE17G24   29.70F WCI  27
ASHLAND        CLOUDY    39  35  86 NE7       29.68S WCI  34
HAYWARD        CLOUDY    62  32  32 SE8       29.64S
SIREN          CLOUDY    63  31  29 SE6       29.60F
CUMBERLAND     CLOUDY    59  32  36 S8        29.63S
RICE LAKE      CLOUDY    63  30  29 SE9       29.64S
CHETEK         CLOUDY    64  33  31 S9        29.65R
LADYSMITH      CLOUDY    61  35  38 SW6       29.68R
EAU CLAIRE     NOT AVBL
MENOMONIE      CLOUDY    65  31  27 S10       29.63S
NEW RICHMOND   CLOUDY    64  30  28 S9        29.60F
OSCEOLA        CLOUDY    64  33  31 SE10      29.61S
$$

WIZ003>005-009-010-017-018-250300-
NORTH CENTRAL WISCONSIN

CITY           SKY/WX    TMP DP  RH WIND       PRES   REMARKS
MANITOWISH WTR CLOUDY    56  36  46 SE7       29.69F
ARBOR VITAE    CLOUDY    59  37  42 SE12      29.70S
WOODRUFF       CLOUDY    59  37  42 SE12      29.70S
RHINELANDER    MOCLDY    58  39  49 SE13      29.73R
EAGLE RIVER    MOCLDY    56  36  46 SE10G16   29.73R
LAND O LAKES   MOCLDY    57  38  47 SE9       29.75R
PHILLIPS       CLOUDY    60  33  35 SE10      29.66F
TOMAHAWK       CLOUDY    58  31  35 SE3       29.71S
MEDFORD        CLOUDY    58  35  43 SE6       29.68F
MERRILL        MOCLDY    60  33  35 SE5       29.71R
$$

WIZ029-030-035-036-043>047-250300-
CENTRAL WISCONSIN

CITY           SKY/WX    TMP DP  RH WIND       PRES   REMARKS
WAUSAU         CLOUDY    61  35  37 SE14G25   29.70R
MOSINEE        NOT AVBL
MARSHFIELD     CLOUDY    62  30  29 SE10      29.69R
STEVENS POINT  CLOUDY    61  34  36 SE9       29.73S
WAUPACA        CLOUDY    61  31  32 SE12      29.75F
WAUTOMA        CLOUDY    62  30  29 SE13      29.73F
WISC RAPIDS    NOT AVBL
CAMP DOUGLAS   NOT AVBL
$$

WIZ011>013-019>022-031-037>040-048>050-250300-
NORTHEAST WISCONSIN

CITY           SKY/WX    TMP DP  RH WIND       PRES   REMARKS
ANTIGO         CLOUDY    54  40  59 SE15      29.75S
SHAWANO        MOCLDY    60  30  31 SE10G17   29.76F
OCONTO         MOCLDY    46  38  75 E5        29.81S
STURGEON BAY   CLOUDY    44  35  70 E7        29.83S
GREEN BAY      CLOUDY    55  36  48 SE8       29.80S
MANITOWOC      NOT AVBL
APPLETON       MOCLDY    54  27  35 SE10      29.77S
CLINTONVILLE   MOCLDY    59  27  29 SE17      29.75F
OSHKOSH        PTCLDY    58  32  37 S9        29.77S
$$

WIZ032>034-041-042-053>061-250300-
SOUTHWEST WISCONSIN

CITY           SKY/WX    TMP DP  RH WIND       PRES   REMARKS
LA CROSSE      CLOUDY    66  35  31 SE7       29.63R
SPARTA         CLOUDY    67  29  24 SE8       29.66S
VIROQUA        CLOUDY    65  28  24 SE9       29.67R
BOSCOBEL       CLOUDY    69  26  20 VRB5      29.66F
PRAIRIE DU CHI CLOUDY    70  21  16 SE8       29.64R
PLATTEVILLE    MOCLDY    64  33  30 SE9       29.69F
$$

WIZ056-057-062-063-064-067-068-250300-
SOUTH CENTRAL WISCONSIN

CITY           SKY/WX    TMP DP  RH WIND       PRES   REMARKS
REEDSBURG      PTCLDY    66  28  24 E6        29.68F
BARABOO/DELLS  PTCLDY    64  30  28 SE12G18   29.71F
LONE ROCK      NOT AVBL
MINERAL POINT  PTCLDY    64  30  27 SE10      29.70F
MADISON        MOCLDY    62  34  35 SE14      29.73F
MIDDLETON      PTCLDY    64  35  33 SE13G20   29.73S
WATERTOWN      PTCLDY    58  33  38 E6        29.76S
MONROE         PTCLDY    63  30  29 SE12      29.73S
JANESVILLE     MOCLDY    61  34  36 E12       29.75R
$$

WIZ051-052-058>065-066-070>072-250300-
SOUTHEAST WISCONSIN

CITY           SKY/WX    TMP DP  RH WIND       PRES   REMARKS
MILWAUKEE      MOCLDY    52  31  44 CALM      29.79S
WAUKESHA       CLEAR     52  30  43 SE7       29.80R
MILWAUKEE/TIMM CLEAR     54  25  32 CALM      29.80R
RACINE         CLEAR     50  33  52 SE5       29.80S
KENOSHA        CLEAR     45  33  63 E7        29.78S
FOND DU LAC    PTCLDY    56  33  42 SE12      29.78S
SHEBOYGAN      CLEAR     51  34  52 S3        29.80S
WEST BEND      CLOUDY    54  28  37 CALM      29.80R
JUNEAU         CLOUDY    57  34  41 E5        29.78S
$$

LSZ147-162-250300-
LAKE SUPERIOR

STATION/POSITION TIME  TEMP    WIND        PRES    WAVE
                       AIR SEA DIR/SP/G            HT/PER
                 (UTC) (F)     (DEG/KT/KT) (MB)    (FT/S)
DEVILS ISLAND    0100   37      60/ 27/ 31 1005.5F
PORT WING        0140   38      30/ 18/ 21 1005.8S
SAXON HARBOR     0140   40      CALM  /  3 1005.1S
$$

LMZ867-665-643>646-250300-
LAKE MICHIGAN

STATION/POSITION TIME  TEMP    WIND        PRES    WAVE
                       AIR SEA DIR/SP/G            HT/PER
                 (UTC) (F)     (DEG/KT/KT) (MB)    (FT/S)
CHAMBERS ISLAND  0140   44      80/  4/  5 1010.2S
N MID LAKE BUOY  0050   41 37   90/  8/ 10 1012.0F   2/ 5
NORTHPORT PIER   0140   42     110/  5/  7 1010.8R
SISTER BAY       0021   43     110/ 11/ 15   N/A
ALGOMA LAKESHORE 0114             CALM       N/A
KEWAUNEE LAKESHO 0130   41      70/  3/  4 1009.7R
SHEBOYGAN LAKESH 0100   50     190/  6/  6 1009.1F
PORT WASHINGTON  0140   48     270/  1/  3 1010.2S
MILWAUKEE LAKESH 0130   47      30/  2/  2   N/A
S MID LAKE BUOY  0050   48 43   50/  6/  6 1009.6F   1/ 5
KENOSHA   LAKESH 0100   49        CALM     1008.5
$$

TC  - TEMPERATURE IN CELSIUS
VSB - VISIBILITY IN STATUTE MILES
WCI - WIND CHILL INDEX
HX  - HEAT INDEX





USA.gov is the U.S. government's official web portal to all federal, state and local government web resources and services.